TimeCDT,TemperatureF,Dew PointF,Humidity,Sea Level PressureIn,VisibilityMPH,Wind Direction,Wind SpeedMPH,Gust SpeedMPH,PrecipitationIn,Events,Conditions,WindDirDegrees,DateUTC
12:53 AM,77.0,69.1,76,29.98,10.0,SSE,3.5,-,N/A,,Clear,150,2013-08-21 05:53:00
1:17 AM,77.0,69.8,78,30.02,10.0,Calm,Calm,-,N/A,,Partly Cloudy,0,2013-08-21 06:17:00
1:53 AM,77.0,70.0,79,29.98,10.0,SE,3.5,-,N/A,,Clear,130,2013-08-21 06:53:00
2:53 AM,78.1,70.0,76,29.98,10.0,Calm,Calm,-,N/A,,Clear,0,2013-08-21 07:53:00
3:28 AM,78.8,69.8,74,30.02,10.0,Calm,Calm,-,N/A,,Mostly Cloudy,0,2013-08-21 08:28:00
3:53 AM,78.1,70.0,76,29.98,10.0,East,3.5,-,N/A,,Mostly Cloudy,80,2013-08-21 08:53:00
4:53 AM,78.1,70.0,76,29.98,10.0,ESE,3.5,-,N/A,,Mostly Cloudy,120,2013-08-21 09:53:00
5:00 AM,78.8,69.8,74,30.02,10.0,East,3.5,-,N/A,,Scattered Clouds,90,2013-08-21 10:00:00
5:22 AM,78.8,69.8,74,30.02,10.0,East,3.5,-,N/A,,Mostly Cloudy,90,2013-08-21 10:22:00
5:53 AM,78.1,70.0,76,29.99,10.0,ENE,3.5,-,N/A,,Mostly Cloudy,60,2013-08-21 10:53:00
6:53 AM,78.1,70.0,76,30.00,10.0,Calm,Calm,-,N/A,,Mostly Cloudy,0,2013-08-21 11:53:00
7:53 AM,78.1,71.1,79,30.01,10.0,ENE,4.6,-,N/A,,Mostly Cloudy,70,2013-08-21 12:53:00
8:31 AM,80.6,71.6,74,30.06,10.0,ENE,5.8,-,N/A,,Scattered Clouds,70,2013-08-21 13:31:00
8:53 AM,82.0,72.0,71,30.02,10.0,East,4.6,-,N/A,,Partly Cloudy,100,2013-08-21 13:53:00
9:53 AM,84.0,73.0,69,30.03,10.0,Variable,4.6,-,N/A,,Scattered Clouds,0,2013-08-21 14:53:00
10:07 AM,84.2,73.4,70,30.06,10.0,Calm,Calm,-,N/A,,Mostly Cloudy,0,2013-08-21 15:07:00
10:28 AM,86.0,71.6,62,30.06,10.0,SE,4.6,-,N/A,,Mostly Cloudy,140,2013-08-21 15:28:00
10:53 AM,86.0,72.0,63,30.03,10.0,South,5.8,-,0.00,,Mostly Cloudy,180,2013-08-21 15:53:00
11:53 AM,88.0,69.1,53,30.03,10.0,WNW,4.6,-,N/A,,Mostly Cloudy,300,2013-08-21 16:53:00
12:53 PM,91.0,70.0,50,30.01,10.0,NNW,6.9,-,N/A,,Mostly Cloudy,330,2013-08-21 17:53:00
1:53 PM,96.1,66.0,37,29.98,10.0,Variable,3.5,-,N/A,,Partly Cloudy,0,2013-08-21 18:53:00
2:53 PM,98.1,64.0,33,29.95,10.0,Variable,4.6,17.3,N/A,,Clear,0,2013-08-21 19:53:00
3:53 PM,95.0,68.0,41,29.94,10.0,East,17.3,25.3,N/A,,Partly Cloudy,100,2013-08-21 20:53:00
4:53 PM,93.9,68.0,43,29.92,10.0,East,13.8,18.4,N/A,,Clear,90,2013-08-21 21:53:00
5:53 PM,91.0,68.0,47,29.96,10.0,ESE,11.5,-,N/A,,Scattered Clouds,120,2013-08-21 22:53:00
6:53 PM,82.0,71.1,69,29.96,10.0,SSE,9.2,19.6,0.00,Rain,Light Rain,160,2013-08-21 23:53:00
7:53 PM,79.0,73.0,82,29.96,10.0,South,3.5,-,0.01,Rain,Light Rain,180,2013-08-22 00:53:00
8:53 PM,79.0,73.0,82,29.98,10.0,Calm,Calm,-,0.00,,Clear,0,2013-08-22 01:53:00
9:53 PM,78.1,73.0,84,30.00,10.0,East,3.5,-,N/A,,Partly Cloudy,80,2013-08-22 02:53:00
10:53 PM,79.0,72.0,79,30.00,10.0,ENE,3.5,-,N/A,,Clear,60,2013-08-22 03:53:00
11:53 PM,80.1,72.0,76,30.00,10.0,East,3.5,-,N/A,,Clear,80,2013-08-22 04:53:00